[Date Prev][Date Next][Thread Prev][Thread Next] - [Date Index][Thread Index][Author Index]

2 Line ISS Keps 10-19



ISS
1 25544U 98067A   01292.15453472  .00059447  00000-0  79965-3 0  6204
2 25544  51.6399 185.0941 0008029 216.8183 297.7008 15.57261424166420


----
Via the sarex mailing list at AMSAT.ORG courtesy of AMSAT-NA.
To unsubscribe, send "unsubscribe sarex" to Majordomo@amsat.org



AMSAT Top AMSAT Home